Overview Statistics Trail Chart Weather Telemetry Raw packets
 

This is the latest recevied weather packets stored in our database for station/object WC4PEM-9. If no packets are shown the sender has not sent any weather packets the latest 10 day(s).

<< 149 150 151 152 153 154 155 >>
Time Temp. Humidity Pressure Rain* Wind** Luminosity Snow
1787802736 22.78° C 96% 1016.5 hPa 2.79 mm - - -
1787802436 22.78° C 96% 1016.6 hPa 2.79 mm - - -
1787802136 22.78° C 96% 1016.6 hPa 3.05 mm - - -
1787801836 22.78° C 96% 1016.4 hPa 3.3 mm - - -
1787801590 22.78° C 96% 1016.3 hPa 3.3 mm - - -
1787801536 22.78° C 96% 1016.3 hPa 3.3 mm - - -
1787801236 22.78° C 96% 1016.4 hPa 3.56 mm - - -
1787800936 22.78° C 96% 1016.3 hPa 3.56 mm - - -
1787800636 22.78° C 96% 1016.4 hPa 3.56 mm - - -
1787800336 22.78° C 96% 1016.4 hPa 3.81 mm - - -
1787800041 22.78° C 96% 1016.3 hPa 3.81 mm - - -
1787799736 22.78° C 96% 1016.3 hPa 4.06 mm - - -
1787799436 22.78° C 96% 1016.4 hPa 4.32 mm - - -
1787799136 22.78° C 96% 1016.5 hPa 4.57 mm - - -
1787798837 22.78° C 96% 1016.6 hPa 4.83 mm - - -
1787798537 22.78° C 96% 1016.5 hPa 4.83 mm - - -
1787798312 22.78° C 96% 1016.6 hPa 5.08 mm - - -
1787798237 22.78° C 96% 1016.6 hPa 5.08 mm - - -
1787797937 22.78° C 96% 1016.7 hPa 5.59 mm - - -
1787797637 22.78° C 96% 1016.6 hPa 5.59 mm - - -
1787797337 22.78° C 96% 1016.6 hPa 6.1 mm - - -
1787797037 22.78° C 96% 1016.2 hPa 6.35 mm - - -
1787796810 23.33° C 96% 1016.3 hPa 6.6 mm - - -
1787796737 23.33° C 96% 1016.3 hPa 6.6 mm - - -
1787796437 22.78° C 96% 1016.3 hPa 6.86 mm - - -

* Rain latest hour (hover to see other rain measurements)
** Current wind speed in m/s (hover to see current wind gust speed)